Wind_Speed
32 32 33 32 30 28 26 21 19 17 16 13 6 7 3 5 5 5 6 6 8 13 18 12 13 11 11 7 7 15 22 24 30 30 30 26 25 20 22 19 14 8 11 16
32 30 30 28 27 25 23 19 18 17 16 13 7 6 3 3 2 6 6 6 9 13 15 13 14 11 12 9 10 9 18 24 26 35 33 27 25 25 25 24 17 11 11 11
27 24 23 23 24 21 20 21 20 17 16 15 11 8 6 7 6 0 2 4 5 10 15 20 16 15 15 10 9 9 10 20 28 31 35 34 30 28 27 26 23 19 16 14
22 20 22 22 21 19 21 24 20 18 17 16 14 12 12 10 11 8 3 2 2 6 8 18 20 16 16 16 11 11 9 13 23 30 31 38 35 32 26 28 26 24 22 18
20 20 22 21 16 22 22 23 18 14 18 19 15 15 14 12 10 8 5 5 6 5 8 12 17 23 22 18 15 13 12 10 14 28 30 32 39 34 35 31 30 27 24 24
17 21 20 20 22 22 18 17 10 12 17 18 18 18 16 14 12 11 11 10 8 10 10 8 14 19 21 21 23 19 16 15 13 18 28 32 37 34 34 35 34 32 26 26
18 20 17 19 20 16 17 17 14 13 16 15 21 19 17 16 14 14 16 15 14 14 14 14 12 13 19 23 24 25 23 19 18 16 23 26 37 34 36 35 32 37 32 29
16 15 12 14 14 16 19 20 18 17 18 18 23 21 21 21 20 18 20 20 21 20 19 18 17 16 15 22 23 26 27 26 24 20 18 24 23 32 36 36 35 35 34 33
16 16 16 18 19 20 19 20 21 22 21 22 25 27 23 26 25 23 23 23 22 21 23 24 22 19 19 18 21 27 29 30 29 27 22 21 24 23 28 35 42 42 38 33
20 21 22 23 26 26 26 26 27 27 25 28 30 33 29 30 29 29 28 27 24 21 22 21 23 24 23 22 21 21 26 30 29 30 28 26 26 30 24 31 32 40 42 41
18 20 21 22 23 24 26 27 28 30 32 31 31 33 33 32 34 33 33 33 30 25 24 24 25 23 22 23 27 27 24 22 28 28 29 30 28 28 30 29 40 32 31 36
24 25 26 28 28 28 28 29 28 29 31 32 35 38 34 36 36 36 35 36 33 30 29 29 27 28 28 26 26 26 29 28 25 27 30 29 29 30 28 31 36 42 42 41
30 31 34 36 35 36 35 37 37 36 35 31 32 39 35 39 40 40 38 38 38 36 36 33 31 28 28 31 31 28 27 30 32 27 29 30 30 30 30 30 30 31 37 39
36 37 39 42 45 42 42 44 44 44 42 42 41 42 42 38 39 40 41 43 42 43 42 38 34 33 32 30 32 33 31 30 31 33 31 31 31 32 32 32 33 33 32 30
44 45 47 47 51 53 51 52 52 51 50 48 47 47 52 48 43 44 42 39 39 42 43 40 36 35 34 34 31 33 37 36 34 34 36 35 34 34 34 35 35 33 33 34
54 55 55 54 58 58 58 59 58 57 56 56 55 54 58 54 51 49 47 45 43 41 40 40 38 38 36 34 34 33 33 35 39 36 37 37 39 38 37 37 38 38 37 36
62 64 65 60 67 66 61 66 68 68 65 63 61 62 60 63 58 55 53 50 47 46 44 42 38 38 38 39 37 35 31 33 31 34 36 37 38 38 39 41 40 39 39 39
70 71 70 65 69 67 66 71 66 67 72 72 66 66 61 64 65 63 60 57 55 52 49 48 45 41 40 39 35 32 33 32 31 27 29 34 36 37 39 40 40 41 43 44
71 70 69 67 68 67 69 74 69 70 79 70 71 70 67 65 65 65 64 62 60 58 56 53 52 50 47 43 40 35 33 34 33 30 28 29 29 29 29 31 33 36 40 44
74 74 74 77 76 80 78 77 78 81 85 75 75 73 70 66 65 67 64 64 63 60 57 55 55 56 55 54 49 44 38 34 35 33 32 30 31 28 29 30 29 30 33 32
79 79 78 76 76 80 72 73 75 78 82 79 81 81 81 78 74 63 64 68 65 61 61 60 58 58 61 59 56 51 45 40 36 37 37 36 34 33 33 32 33 34 34 36
66 61 60 58 60 62 59 62 62 63 65 70 78 85 87 88 84 78 74 68 66 67 65 65 65 65 65 65 63 58 51 48 45 40 40 37 38 36 39 41 40 40 40 34
55 53 52 51 51 49 47 50 53 54 56 59 63 70 82 90 89 86 82 80 76 73 67 71 72 70 64 67 67 64 60 56 54 48 43 42 43 39 39 42 27 41 46 44
46 42 40 40 43 42 42 40 38 41 44 47 51 58 66 77 87 92 89 87 84 81 78 76 74 74 72 69 70 68 63 55 57 54 50 46 40 44 44 37 18 47 53 40
31 29 29 28 30 33 38 40 39 38 39 40 42 47 52 61 74 82 91 94 90 87 84 80 80 80 72 72 72 69 66 59 57 60 56 54 51 54 53 48 51 55 54 41
28 21 19 17 18 20 22 27 34 39 40 39 40 45 49 54 62 70 78 85 93 93 91 88 86 83 80 82 73 79 72 67 62 60 60 63 62 65 64 59 56 57 57 51
Wind_Direction
264 269 271 275 278 280 282 283 286 287 294 289 278 293 1 1 11 78 108 148 150 183 197 195 188 211 197 195 178 196 199 204 200 199 192 192 188 191 187 182 184 184 167 197
264 264 267 268 270 271 275 276 272 281 281 269 246 261 311 335 357 62 81 143 146 176 190 174 187 206 200 205 197 177 192 200 204 198 193 195 195 196 196 209 210 198 190 195
260 257 258 258 262 265 268 271 270 276 262 250 238 221 240 260 265 295 68 102 172 178 195 194 193 208 198 185 192 191 189 198 203 203 205 200 204 209 207 211 217 216 204 210
254 249 249 248 250 256 261 268 277 270 254 242 225 222 219 247 258 237 213 271 160 208 216 205 208 210 212 199 188 187 195 200 206 206 211 218 211 213 217 222 220 214 211 220
252 249 252 253 256 259 260 266 275 262 244 243 222 228 233 241 260 260 247 229 251 251 205 226 218 221 232 229 204 193 194 206 208 210 217 222 219 226 234 229 220 209 209 218
247 252 256 257 254 256 256 253 251 233 235 237 243 230 236 245 252 260 262 260 247 241 249 230 231 225 222 228 232 217 214 212 218 217 214 217 220 233 232 221 218 215 213 221
259 258 257 254 252 245 235 239 236 233 239 235 243 244 247 249 248 252 262 263 269 254 240 238 234 237 225 230 230 230 224 222 217 222 221 222 221 223 222 221 219 221 222 223
247 253 252 249 246 246 253 262 257 243 245 245 250 243 243 249 245 244 256 266 266 263 257 248 239 232 234 229 235 241 228 228 226 219 231 225 224 222 219 222 224 226 229 228
253 258 257 258 257 254 254 262 265 259 253 249 252 258 250 252 255 255 257 263 259 254 252 251 247 244 241 235 236 234 232 234 233 230 232 232 216 229 227 227 224 226 230 235
264 265 265 264 266 268 268 265 263 265 264 259 258 260 260 257 258 258 261 262 259 246 245 250 246 245 239 243 242 239 238 237 235 231 232 234 230 213 224 210 229 236 237 238
268 271 272 270 269 268 269 268 266 266 265 259 257 262 267 263 261 261 262 263 260 249 241 244 255 257 254 248 246 247 245 243 237 230 232 233 234 237 217 220 212 217 238 238
274 271 269 268 268 266 265 265 262 264 265 267 267 264 259 259 260 260 261 262 262 257 249 246 244 252 258 256 255 256 250 249 239 228 230 229 232 235 237 227 220 223 226 237
275 274 276 275 268 269 266 262 263 262 259 257 263 267 262 261 260 257 255 258 263 262 260 257 254 246 250 257 255 254 253 246 245 235 226 229 227 230 236 239 236 230 227 231
274 273 272 273 276 274 269 269 265 263 261 258 256 258 260 260 263 263 263 261 261 263 264 263 259 254 253 253 253 253 250 244 239 239 236 230 229 231 231 233 237 238 241 240
278 275 272 269 269 269 268 268 267 267 265 262 259 255 258 253 252 256 258 258 261 263 263 263 262 260 259 258 256 252 249 246 240 235 235 237 237 233 229 229 234 237 240 242
282 280 278 275 272 270 269 267 263 259 259 259 258 256 256 258 252 251 252 256 259 260 262 262 260 261 259 255 254 252 252 254 248 244 239 236 237 239 241 236 234 234 237 240
283 281 279 277 274 270 269 266 264 267 261 254 254 252 254 256 256 253 251 250 251 255 258 259 257 254 253 253 254 255 252 253 247 242 242 242 241 241 243 245 243 240 241 241
284 282 280 277 273 272 268 266 264 261 262 259 255 252 251 253 255 255 252 251 250 248 249 252 255 253 252 253 254 255 249 247 249 246 244 240 241 243 246 248 248 248 247 246
286 284 282 279 273 270 266 262 264 261 257 257 256 255 250 250 251 252 254 252 249 248 247 247 250 252 251 250 252 253 249 240 237 238 239 238 235 236 241 246 248 252 253 252
292 288 285 281 278 274 269 267 261 257 257 253 252 253 252 249 247 248 249 250 249 248 247 249 249 250 252 252 251 252 251 248 240 235 238 238 240 247 249 255 254 255 261 262
292 289 283 279 276 272 270 265 261 257 255 252 249 247 248 246 245 239 242 244 245 244 244 243 245 247 246 248 248 247 248 247 244 240 238 241 245 248 255 258 259 256 258 263
291 285 280 276 272 270 265 261 259 256 253 248 245 243 242 243 243 241 238 240 242 241 240 242 242 244 243 245 248 249 247 245 240 237 235 239 244 253 251 255 261 265 266 262
290 282 278 274 271 271 270 262 257 255 254 251 246 242 241 241 241 240 237 238 238 241 240 238 241 242 244 244 246 248 250 245 243 239 236 233 236 234 253 255 271 277 269 266
295 287 279 271 268 265 263 261 260 261 259 256 253 248 242 240 240 240 238 237 237 237 237 239 241 241 242 246 247 247 246 239 237 235 231 228 226 228 239 214 186 212 252 261
311 304 292 281 273 265 260 257 256 256 256 254 253 252 248 243 243 241 238 237 236 237 238 236 237 240 240 242 244 245 243 241 234 235 228 226 213 223 233 236 244 238 238 229
324 326 322 310 293 282 272 263 255 251 255 260 263 264 258 252 244 239 240 240 238 236 235 236 237 237 238 241 240 241 241 238 233 233 231 225 220 222 229 237 243 236 237 243
Height
10938 10938 10935 10936 10937 10938 10939 10939 10938 10937 10937 10937 10937 10937 10937 10938 10938 10936 10936 10938 10939 10942 10945 10948 10950 10951 10952 10953 10955 10957 10960 10963 10966 10969 10974 10977 10980 10984 10988 10991 10993 10996 10997 10999
10931 10931 10931 10931 10932 10933 10934 10935 10934 10934 10933 10933 10934 10935 10935 10937 10937 10936 10936 10937 10938 10939 10942 10945 10948 10949 10950 10951 10952 10954 10957 10961 10964 10967 10971 10976 10979 10983 10986 10989 10992 10995 10996 10999
10924 10925 10926 10926 10927 10929 10929 10929 10930 10931 10930 10931 10932 10934 10934 10934 10936 10935 10935 10936 10937 10938 10940 10942 10945 10947 10948 10949 10950 10951 10954 10957 10960 10964 10968 10972 10976 10980 10984 10987 10990 10994 10996 10998
10918 10920 10920 10921 10923 10925 10925 10924 10925 10927 10927 10928 10929 10931 10932 10932 10933 10934 10934 10934 10935 10936 10938 10939 10941 10944 10946 10947 10948 10950 10951 10954 10958 10961 10965 10969 10973 10977 10980 10984 10988 10991 10994 10996
10914 10915 10915 10917 10921 10919 10920 10919 10921 10922 10923 10924 10926 10928 10930 10930 10930 10931 10931 10932 10932 10933 10934 10937 10938 10940 10943 10945 10947 10948 10949 10951 10954 10957 10961 10965 10969 10974 10976 10981 10985 10988 10991 10993
10910 10910 10912 10914 10914 10914 10916 10916 10917 10918 10919 10921 10922 10924 10926 10927 10927 10928 10927 10928 10929 10930 10932 10933 10935 10937 10939 10941 10943 10945 10947 10948 10950 10952 10956 10960 10964 10968 10971 10976 10980 10984 10988 10990
10905 10905 10908 10909 10909 10911 10911 10911 10913 10914 10915 10918 10916 10919 10921 10923 10924 10925 10924 10925 10925 10926 10928 10929 10931 10932 10934 10937 10939 10941 10943 10945 10947 10949 10951 10954 10959 10963 10967 10971 10975 10979 10983 10986
10901 10902 10904 10905 10907 10909 10909 10910 10911 10910 10911 10912 10911 10914 10916 10917 10919 10921 10921 10921 10922 10922 10923 10925 10927 10928 10930 10932 10934 10936 10938 10941 10944 10946 10948 10950 10953 10957 10961 10966 10970 10973 10977 10981
10899 10900 10901 10902 10903 10904 10906 10906 10907 10908 10908 10907 10906 10906 10910 10909 10911 10913 10915 10916 10916 10917 10918 10919 10921 10924 10925 10927 10929 10931 10934 10936 10939 10942 10944 10947 10949 10952 10955 10960 10964 10968 10972 10976
10896 10897 10897 10898 10898 10899 10900 10901 10901 10901 10903 10903 10902 10899 10903 10901 10903 10904 10906 10908 10909 10911 10912 10913 10914 10917 10919 10921 10924 10926 10929 10931 10934 10936 10939 10942 10944 10947 10950 10954 10959 10962 10966 10970
10891 10890 10891 10891 10892 10893 10893 10893 10894 10894 10894 10895 10895 10894 10895 10896 10895 10895 10896 10898 10901 10904 10906 10908 10908 10910 10912 10915 10917 10920 10923 10926 10928 10930 10933 10936 10938 10940 10944 10948 10952 10955 10959 10963
10884 10884 10884 10883 10884 10884 10884 10884 10886 10887 10888 10888 10887 10885 10888 10886 10887 10888 10888 10888 10891 10895 10899 10901 10904 10905 10906 10908 10910 10913 10916 10920 10922 10923 10926 10929 10932 10935 10938 10941 10945 10948 10952 10956
10877 10876 10874 10874 10875 10875 10877 10875 10875 10877 10878 10880 10878 10873 10879 10878 10877 10877 10878 10880 10880 10884 10888 10892 10895 10899 10900 10901 10903 10905 10908 10911 10914 10916 10918 10921 10924 10927 10930 10934 10937 10941 10944 10947
10867 10867 10866 10863 10860 10863 10865 10863 10864 10865 10867 10867 10868 10864 10864 10867 10867 10867 10868 10869 10871 10872 10876 10880 10885 10888 10891 10893 10895 10896 10898 10901 10904 10906 10909 10911 10914 10917 10920 10924 10928 10932 10935 10938
10853 10853 10852 10852 10849 10846 10850 10848 10848 10850 10851 10853 10854 10854 10846 10853 10856 10856 10857 10858 10859 10861 10864 10868 10873 10877 10880 10883 10886 10887 10888 10890 10893 10896 10898 10901 10904 10907 10911 10914 10917 10921 10925 10928
10835 10835 10835 10836 10830 10829 10828 10828 10829 10831 10833 10835 10836 10838 10831 10837 10842 10843 10845 10847 10849 10851 10852 10855 10861 10865 10868 10871 10873 10876 10878 10880 10884 10887 10890 10892 10895 10898 10902 10905 10908 10911 10913 10915
10816 10812 10811 10819 10807 10807 10815 10806 10803 10805 10810 10813 10815 10816 10819 10816 10824 10828 10831 10834 10837 10838 10840 10842 10847 10851 10854 10857 10860 10864 10868 10869 10872 10875 10879 10883 10886 10890 10893 10895 10899 10902 10903 10905
10791 10788 10787 10792 10783 10785 10786 10778 10785 10785 10779 10782 10795 10795 10804 10803 10804 10809 10813 10819 10823 10824 10826 10828 10831 10836 10841 10845 10850 10853 10856 10859 10861 10866 10869 10872 10876 10879 10883 10886 10890 10892 10894 10896
10764 10759 10758 10759 10756 10760 10759 10749 10762 10762 10748 10766 10766 10772 10781 10786 10785 10789 10794 10800 10805 10809 10814 10817 10819 10821 10826 10832 10837 10842 10845 10848 10852 10856 10859 10863 10866 10870 10874 10877 10881 10883 10884 10886
10732 10729 10727 10723 10724 10720 10722 10727 10730 10727 10721 10741 10744 10750 10755 10763 10766 10769 10774 10778 10787 10793 10800 10804 10807 10809 10811 10816 10823 10829 10834 10840 10844 10849 10853 10855 10860 10866 10869 10872 10875 10877 10878 10878
10701 10696 10689 10687 10687 10680 10691 10689 10691 10693 10696 10714 10718 10723 10727 10733 10740 10749 10752 10758 10766 10775 10779 10785 10789 10793 10796 10798 10805 10813 10822 10829 10833 10837 10841 10847 10852 10854 10857 10860 10862 10863 10866 10871
10667 10664 10659 10658 10655 10653 10660 10660 10662 10664 10669 10676 10683 10691 10698 10702 10712 10725 10734 10740 10745 10752 10761 10766 10769 10773 10778 10783 10787 10795 10805 10814 10818 10821 10825 10835 10840 10844 10843 10845 10849 10854 10858 10859
10642 10637 10636 10636 10633 10635 10637 10639 10640 10644 10647 10651 10657 10663 10670 10676 10685 10696 10708 10716 10725 10733 10740 10747 10751 10756 10762 10766 10771 10777 10787 10798 10803 10807 10812 10818 10822 10827 10826 10831 10840 10845 10850 10855
10623 10618 10616 10615 10616 10620 10618 10620 10626 10629 10631 10634 10638 10642 10647 10652 10658 10667 10680 10691 10700 10707 10717 10724 10731 10737 10743 10749 10754 10759 10767 10778 10785 10791 10798 10807 10811 10811 10808 10812 10790 10839 10849 10856
10612 10607 10604 10602 10601 10602 10605 10608 10612 10615 10616 10618 10620 10623 10627 10633 10637 10642 10650 10663 10675 10686 10694 10704 10710 10715 10722 10729 10734 10740 10749 10757 10765 10772 10780 10790 10797 10796 10796 10799 10801 10814 10830 10834
10607 10601 10597 10595 10593 10592 10594 10597 10599 10600 10603 10607 10609 10608 10609 10611 10614 10618 10627 10637 10648 10659 10668 10679 10686 10693 10702 10707 10714 10718 10727 10737 10746 10753 10760 10768 10777 10783 10784 10788 10791 10797 10808 10811